• In Russia
  • List of Countries
  • For 7 days
  • Water Temperature
  • Satellite Maps
  • Weather Map
  • Weather Widgets
  • user-avatar
    Login

    Hourly Weather Berat

    Today, 20 July, Thursday

    Time Temperature Precipitation Wind Pressure Humidity
    00:00 +23°C° 0 mm 1 mps 745 mmHg 64%
    01:00 +23°C° 0 mm 1 mps 744 mmHg 65%
    02:00 +23°C° 0 mm 1 mps 744 mmHg 66%
    03:00 +23°C° 0 mm 1 mps 744 mmHg 67%
    04:00 +22°C° 0 mm 1 mps 744 mmHg 68%
    05:00 +24°C° 0 mm 1 mps 744 mmHg 62%
    06:00 +26°C° 0 mm 1 mps 744 mmHg 57%
    07:00 +28°C° 0 mm 1 mps 744 mmHg 53%
    08:00 +29°C° 0 mm 1 mps 744 mmHg 48%
    09:00 +31°C° 0 mm 1 mps 744 mmHg 44%
    10:00 +32°C° 0 mm 2 mps 744 mmHg 40%
    11:00 +34°C° 0 mm 2 mps 743 mmHg 38%
    12:00 +34°C° 0 mm 3 mps 743 mmHg 36%
    13:00 +35°C° 0 mm 3 mps 743 mmHg 35%
    14:00 +35°C° 0 mm 3 mps 743 mmHg 36%
    15:00 +34°C° 0 mm 3 mps 742 mmHg 37%
    16:00 +34°C° 0 mm 3 mps 742 mmHg 38%
    17:00 +31°C° 0 mm 3 mps 742 mmHg 44%
    18:00 +29°C° 0 mm 2 mps 742 mmHg 49%
    19:00 +27°C° 0 mm 1 mps 742 mmHg 55%
    20:00 +26°C° 0 mm 1 mps 742 mmHg 57%
    21:00 +25°C° 0 mm 1 mps 743 mmHg 58%
    22:00 +24°C° 0 mm 1 mps 743 mmHg 60%
    23:00 +24°C° 0 mm 1 mps 743 mmHg 61%

    Tomorrow, 21 July, Friday

    Time Temperature Precipitation Wind Pressure Humidity
    00:00 +24°C° 0 mm 1 mps 743 mmHg 62%
    01:00 +23°C° 0 mm 1 mps 743 mmHg 62%
    02:00 +23°C° 0 mm 1 mps 743 mmHg 63%
    03:00 +23°C° 0 mm 1 mps 743 mmHg 64%
    04:00 +23°C° 0 mm 1 mps 743 mmHg 65%
    05:00 +25°C° 0 mm 1 mps 743 mmHg 60%
    06:00 +27°C° 0 mm 1 mps 743 mmHg 56%
    07:00 +29°C° 0 mm 1 mps 743 mmHg 52%
    08:00 +30°C° 0 mm 1 mps 744 mmHg 47%
    09:00 +32°C° 0 mm 1 mps 744 mmHg 42%
    10:00 +34°C° 0 mm 1 mps 744 mmHg 37%
    11:00 +36°C° 0 mm 2 mps 744 mmHg 35%
    12:00 +36°C° 0 mm 3 mps 744 mmHg 34%
    13:00 +37°C° 0 mm 3 mps 743 mmHg 32%
    14:00 +36°C° 0 mm 3 mps 743 mmHg 34%
    15:00 +36°C° 0 mm 3 mps 743 mmHg 35%
    16:00 +35°C° 0 mm 3 mps 743 mmHg 37%
    17:00 +33°C° 0 mm 3 mps 743 mmHg 43%
    18:00 +30°C° 0 mm 2 mps 743 mmHg 49%
    19:00 +28°C° 0 mm 1 mps 743 mmHg 54%
    20:00 +28°C° 0 mm 1 mps 743 mmHg 56%
    21:00 +27°C° 0 mm 1 mps 744 mmHg 57%
    22:00 +26°C° 0 mm 1 mps 744 mmHg 59%
    23:00 +26°C° 0 mm 1 mps 744 mmHg 59%

    Day after tomorrow, 22 July, Saturday

    Time Temperature Precipitation Wind Pressure Humidity
    00:00 +26°C° 0 mm 1 mps 744 mmHg 59%
    01:00 +25°C° 0 mm 1 mps 744 mmHg 59%
    02:00 +25°C° 0 mm 1 mps 744 mmHg 59%
    03:00 +25°C° 0 mm 1 mps 744 mmHg 59%
    04:00 +25°C° 0 mm 1 mps 744 mmHg 60%
    05:00 +27°C° 0 mm 1 mps 744 mmHg 56%
    06:00 +28°C° 0 mm 1 mps 744 mmHg 51%
    07:00 +30°C° 0 mm 1 mps 745 mmHg 47%
    08:00 +32°C° 0 mm 1 mps 745 mmHg 42%
    09:00 +34°C° 0 mm 1 mps 745 mmHg 38%
    10:00 +36°C° 0 mm 2 mps 745 mmHg 33%
    11:00 +37°C° 0 mm 2 mps 745 mmHg 31%
    12:00 +38°C° 0 mm 3 mps 745 mmHg 30%
    13:00 +38°C° 0 mm 3 mps 744 mmHg 28%
    14:00 +38°C° 0 mm 3 mps 744 mmHg 29%
    15:00 +38°C° 0 mm 3 mps 744 mmHg 30%
    16:00 +37°C° 0 mm 4 mps 744 mmHg 31%
    17:00 +35°C° 0 mm 3 mps 744 mmHg 36%
    18:00 +32°C° 0 mm 2 mps 744 mmHg 42%
    19:00 +29°C° 0 mm 1 mps 744 mmHg 47%
    20:00 +28°C° 0 mm 1 mps 744 mmHg 48%
    21:00 +27°C° 0 mm 1 mps 744 mmHg 49%
    22:00 +27°C° 0 mm 1 mps 745 mmHg 49%
    23:00 +26°C° 0 mm 1 mps 745 mmHg 49%

    23 July, Sunday

    Time Temperature Precipitation Wind Pressure Humidity
    00:00 +26°C° 0 mm 1 mps 744 mmHg 48%
    01:00 +26°C° 0 mm 1 mps 744 mmHg 47%
    02:00 +25°C° 0 mm 1 mps 744 mmHg 47%
    03:00 +25°C° 0 mm 1 mps 744 mmHg 46%
    04:00 +25°C° 0 mm 1 mps 744 mmHg 46%
    05:00 +27°C° 0 mm 1 mps 744 mmHg 43%
    06:00 +29°C° 0 mm 1 mps 744 mmHg 40%
    07:00 +31°C° 0 mm 1 mps 744 mmHg 38%
    08:00 +33°C° 0 mm 1 mps 744 mmHg 35%
    09:00 +35°C° 0 mm 2 mps 744 mmHg 31%
    10:00 +37°C° 0 mm 3 mps 744 mmHg 28%
    11:00 +38°C° 0 mm 3 mps 744 mmHg 27%
    12:00 +38°C° 0 mm 4 mps 743 mmHg 26%
    13:00 +40°C° 0 mm 4 mps 743 mmHg 25%
    14:00 +38°C° 0 mm 4 mps 743 mmHg 26%
    15:00 +38°C° 0 mm 4 mps 742 mmHg 27%
    16:00 +37°C° 0 mm 4 mps 742 mmHg 28%
    17:00 +35°C° 0 mm 3 mps 742 mmHg 34%
    18:00 +31°C° 0 mm 3 mps 742 mmHg 40%
    19:00 +29°C° 0 mm 2 mps 742 mmHg 46%
    20:00 +28°C° 0 mm 2 mps 743 mmHg 48%
    21:00 +27°C° 0 mm 2 mps 743 mmHg 50%
    22:00 +26°C° 0 mm 1 mps 743 mmHg 52%
    23:00 +26°C° 0 mm 1 mps 743 mmHg 52%

    24 July, Monday

    Time Temperature Precipitation Wind Pressure Humidity
    00:00 +25°C° 0 mm 1 mps 743 mmHg 52%
    01:00 +25°C° 0 mm 1 mps 742 mmHg 52%
    02:00 +25°C° 0 mm 1 mps 742 mmHg 52%
    03:00 +25°C° 0 mm 1 mps 742 mmHg 52%
    04:00 +24°C° 0 mm 1 mps 742 mmHg 52%
    05:00 +26°C° 0 mm 1 mps 742 mmHg 48%
    06:00 +28°C° 0 mm 1 mps 742 mmHg 45%
    07:00 +30°C° 0 mm 1 mps 742 mmHg 42%
    08:00 +32°C° 0 mm 1 mps 742 mmHg 38%
    09:00 +34°C° 0 mm 1 mps 742 mmHg 34%
    10:00 +37°C° 0 mm 2 mps 742 mmHg 30%
    11:00 +38°C° 0 mm 2 mps 741 mmHg 29%
    12:00 +38°C° 0 mm 3 mps 741 mmHg 27%
    13:00 +39°C° 0 mm 3 mps 741 mmHg 26%
    14:00 +39°C° 0 mm 3 mps 740 mmHg 27%
    15:00 +38°C° 0 mm 4 mps 740 mmHg 28%
    16:00 +38°C° 0 mm 4 mps 740 mmHg 28%
    17:00 +35°C° 0 mm 3 mps 740 mmHg 33%
    18:00 +32°C° 0 mm 2 mps 740 mmHg 39%
    19:00 +29°C° 0 mm 1 mps 739 mmHg 44%
    20:00 +29°C° 0 mm 1 mps 740 mmHg 45%
    21:00 +28°C° 0 mm 1 mps 740 mmHg 45%
    22:00 +27°C° 0 mm 1 mps 740 mmHg 46%
    23:00 +27°C° 0 mm 1 mps 740 mmHg 46%

    25 July, Tuesday

    Time Temperature Precipitation Wind Pressure Humidity
    00:00 +27°C° 0 mm 2 mps 740 mmHg 46%
    01:00 +27°C° 0 mm 2 mps 739 mmHg 45%
    02:00 +26°C° 0 mm 2 mps 739 mmHg 46%
    03:00 +26°C° 0 mm 2 mps 739 mmHg 47%
    04:00 +26°C° 0 mm 2 mps 739 mmHg 48%
    05:00 +28°C° 0 mm 3 mps 739 mmHg 45%
    06:00 +29°C° 0 mm 3 mps 739 mmHg 43%
    07:00 +31°C° 0 mm 3 mps 739 mmHg 41%
    08:00 +34°C° 0 mm 4 mps 739 mmHg 36%
    09:00 +36°C° 0 mm 4 mps 739 mmHg 32%
    10:00 +37°C° 0 mm 4 mps 738 mmHg 27%
    11:00 +39°C° 0 mm 5 mps 738 mmHg 27%
    12:00 +39°C° 0 mm 5 mps 738 mmHg 28%
    13:00 +40°C° 0 mm 6 mps 738 mmHg 28%
    14:00 +39°C° 0 mm 5 mps 738 mmHg 30%
    15:00 +37°C° 0 mm 5 mps 738 mmHg 31%
    16:00 +37°C° 0 mm 5 mps 738 mmHg 33%
    17:00 +34°C° 0 mm 4 mps 738 mmHg 39%
    18:00 +31°C° 0 mm 3 mps 738 mmHg 46%
    19:00 +29°C° 0 mm 2 mps 738 mmHg 52%
    20:00 +28°C° 0 mm 2 mps 738 mmHg 55%
    21:00 +27°C° 0 mm 2 mps 738 mmHg 59%
    22:00 +26°C° 0 mm 2 mps 739 mmHg 63%
    23:00 +25°C° 0 mm 2 mps 739 mmHg 66%
    Show more